Bazine, Kansas
Current Conditions -  °F | °C
As of 10:15 PM on Tuesday 21 Oct 2014 (Local Time) from KHYS Reporting Station
Clear Clear  
Wind Chill: 64°   Ceiling: Unl
Heat Index: 64°   Visibility: 10mi
Dew Point: 54°   Wind: 13mph
Humidity: 68%   Direction: 160°SSE
Pressure: 29.98"   Gusts: NA
Location:  38.44°N, 99.69°W
Report Text: KHYS 220315Z AUTO 16011KT 10SM CLR 18/12 A2998 RMK AO1
Loading
Personal Weather Stations






























Interactive Weather Map
Tropical Storm Tracking
New forecast layout! Learn more

10-Day Weather Forecast

Advertisements
Track Severe Weather on mobile